Regional Weather Roundup
Issued by NWS Tiyan, Guam

Home | Current Version | Previous Version | Text Only | Print | Product List | Glossary On
Versions: 1 2 3 4 5 6 7 8 9 10 11 12 13 14 15 16 17 18 19 20 21 22 23 24 25 26 27 28 29 30 31 32 33 34 35 36 37 38 39 40 41 42 43 44 45 46 47
000
ASGM40 PGUM 262212
RWRGUM
WEATHER ROUNDUP FOR THE MARIANAS
NATIONAL WEATHER SERVICE TIYAN GU
800 AM CHST SAT DEC 27 2014

GUZ001>004-262300-
MARIANA ISLANDS-

CITY           SKY/WX    TMP DP  RH WIND       PRES   REMARKS
GUAM AIRPORT   MOSUNNY   81  73  78 NE12      29.88R
ANDERSEN AFB   MOSUNNY   81  72  74 NE20      29.89R
ROTA AIRPORT   MOSUNNY   79  73  83 E15       29.90R
TINIAN AP      MOSUNNY   82  73  74 E14       29.89R
SAIPAN AP      CLOUDY    81  72  74 NE14G26   29.90R

$$




USA.gov is the U.S. government's official web portal to all federal, state and local government web resources and services.